﻿測定場所 (Monitoring sites),日付 (Measurement date),時間 (Measurement time),線量率 最大値 (max) μGy/h,線量率 最小値 (min) μGy/h,線量率 平均値 (average) μGy/h,
大田 (Ota),2017-04-09,23:01～24:00,0.0374,0.0326,0.0354,
大田 (Ota),2017-04-09,22:01～23:00,0.0379,0.0336,0.0358,
大田 (Ota),2017-04-09,21:01～22:00,0.0402,0.0322,0.0357,
大田 (Ota),2017-04-09,20:01～21:00,0.0375,0.0331,0.0357,
大田 (Ota),2017-04-09,19:01～20:00,0.0374,0.0341,0.0359,
大田 (Ota),2017-04-09,18:01～19:00,0.0396,0.0337,0.0366,
大田 (Ota),2017-04-09,17:01～18:00,0.0420,0.0351,0.0382,
大田 (Ota),2017-04-09,16:01～17:00,0.0456,0.0366,0.0415,
大田 (Ota),2017-04-09,15:01～16:00,0.0526,0.0423,0.0467,
大田 (Ota),2017-04-09,14:01～15:00,0.0489,0.0424,0.0459,
大田 (Ota),2017-04-09,13:01～14:00,0.0482,0.0398,0.0440,
大田 (Ota),2017-04-09,12:01～13:00,0.0481,0.0391,0.0444,
大田 (Ota),2017-04-09,11:01～12:00,0.0439,0.0370,0.0406,
大田 (Ota),2017-04-09,10:01～11:00,0.0442,0.0362,0.0394,
大田 (Ota),2017-04-09,09:01～10:00,0.0428,0.0340,0.0381,
大田 (Ota),2017-04-09,08:01～09:00,0.0462,0.0392,0.0420,
大田 (Ota),2017-04-09,07:01～08:00,0.0437,0.0358,0.0386,
大田 (Ota),2017-04-09,06:01～07:00,0.0380,0.0340,0.0360,
大田 (Ota),2017-04-09,05:01～06:00,0.0392,0.0337,0.0359,
大田 (Ota),2017-04-09,04:01～05:00,0.0401,0.0346,0.0370,
大田 (Ota),2017-04-09,03:01～04:00,0.0433,0.0361,0.0401,
大田 (Ota),2017-04-09,02:01～03:00,0.0453,0.0354,0.0406,
大田 (Ota),2017-04-09,01:01～02:00,0.0371,0.0332,0.0356,
大田 (Ota),2017-04-09,00:01～01:00,0.0382,0.0332,0.0354,
大田 (Ota),2017-04-08,23:01～24:00,0.0382,0.0335,0.0354,
大田 (Ota),2017-04-08,22:01～23:00,0.0369,0.0331,0.0355,
大田 (Ota),2017-04-08,21:01～22:00,0.0372,0.0339,0.0352,
大田 (Ota),2017-04-08,20:01～21:00,0.0373,0.0340,0.0354,
大田 (Ota),2017-04-08,19:01～20:00,0.0371,0.0336,0.0354,
大田 (Ota),2017-04-08,18:01～19:00,0.0381,0.0331,0.0352,
大田 (Ota),2017-04-08,17:01～18:00,0.0376,0.0332,0.0354,
大田 (Ota),2017-04-08,16:01～17:00,0.0389,0.0327,0.0357,
大田 (Ota),2017-04-08,15:01～16:00,0.0386,0.0342,0.0364,
大田 (Ota),2017-04-08,14:01～15:00,0.0390,0.0349,0.0365,
大田 (Ota),2017-04-08,13:01～14:00,0.0393,0.0338,0.0362,
大田 (Ota),2017-04-08,12:01～13:00,0.0377,0.0340,0.0362,
大田 (Ota),2017-04-08,11:01～12:00,0.0391,0.0346,0.0369,
大田 (Ota),2017-04-08,10:01～11:00,0.0405,0.0351,0.0379,
大田 (Ota),2017-04-08,09:01～10:00,0.0428,0.0354,0.0389,
大田 (Ota),2017-04-08,08:01～09:00,0.0445,0.0364,0.0399,
大田 (Ota),2017-04-08,07:01～08:00,0.0419,0.0360,0.0388,
大田 (Ota),2017-04-08,06:01～07:00,0.0433,0.0352,0.0387,
大田 (Ota),2017-04-08,05:01～06:00,0.0429,0.0358,0.0394,
大田 (Ota),2017-04-08,04:01～05:00,0.0435,0.0360,0.0399,
大田 (Ota),2017-04-08,03:01～04:00,0.0407,0.0347,0.0370,
大田 (Ota),2017-04-08,02:01～03:00,0.0376,0.0342,0.0357,
大田 (Ota),2017-04-08,01:01～02:00,0.0371,0.0332,0.0355,
大田 (Ota),2017-04-08,00:01～01:00,0.0384,0.0335,0.0357,
大田 (Ota),2017-04-07,23:01～24:00,0.0375,0.0335,0.0356,
大田 (Ota),2017-04-07,22:01～23:00,0.0381,0.0339,0.0358,
大田 (Ota),2017-04-07,21:01～22:00,0.0378,0.0338,0.0354,
大田 (Ota),2017-04-07,20:01～21:00,0.0380,0.0334,0.0356,
大田 (Ota),2017-04-07,19:01～20:00,0.0372,0.0330,0.0354,
大田 (Ota),2017-04-07,18:01～19:00,0.0389,0.0337,0.0357,
大田 (Ota),2017-04-07,17:01～18:00,0.0373,0.0335,0.0355,
大田 (Ota),2017-04-07,16:01～17:00,0.0380,0.0329,0.0354,
大田 (Ota),2017-04-07,15:01～16:00,0.0379,0.0333,0.0354,
大田 (Ota),2017-04-07,14:01～15:00,0.0371,0.0335,0.0354,
大田 (Ota),2017-04-07,13:01～14:00,0.0374,0.0337,0.0354,
大田 (Ota),2017-04-07,12:01～13:00,0.0373,0.0335,0.0355,
大田 (Ota),2017-04-07,11:01～12:00,0.0373,0.0339,0.0359,
大田 (Ota),2017-04-07,10:01～11:00,0.0402,0.0343,0.0370,
大田 (Ota),2017-04-07,09:01～10:00,0.0421,0.0356,0.0388,
大田 (Ota),2017-04-07,08:01～09:00,0.0416,0.0360,0.0389,
大田 (Ota),2017-04-07,07:01～08:00,0.0466,0.0373,0.0417,
大田 (Ota),2017-04-07,06:01～07:00,0.0461,0.0389,0.0428,
大田 (Ota),2017-04-07,05:01～06:00,0.0452,0.0370,0.0410,
大田 (Ota),2017-04-07,04:01～05:00,0.0452,0.0371,0.0406,
大田 (Ota),2017-04-07,03:01～04:00,0.0425,0.0361,0.0390,
大田 (Ota),2017-04-07,02:01～03:00,0.0430,0.0361,0.0389,
大田 (Ota),2017-04-07,01:01～02:00,0.0452,0.0369,0.0404,
大田 (Ota),2017-04-07,00:01～01:00,0.0508,0.0410,0.0456,
大田 (Ota),2017-04-06,23:01～24:00,0.0545,0.0427,0.0501,
大田 (Ota),2017-04-06,22:01～23:00,0.0446,0.0335,0.0369,
大田 (Ota),2017-04-06,21:01～22:00,0.0372,0.0335,0.0357,
大田 (Ota),2017-04-06,20:01～21:00,0.0376,0.0340,0.0357,
大田 (Ota),2017-04-06,19:01～20:00,0.0384,0.0330,0.0357,
大田 (Ota),2017-04-06,18:01～19:00,0.0375,0.0337,0.0360,
大田 (Ota),2017-04-06,17:01～18:00,0.0376,0.0338,0.0359,
大田 (Ota),2017-04-06,16:01～17:00,0.0371,0.0344,0.0359,
大田 (Ota),2017-04-06,15:01～16:00,0.0390,0.0340,0.0357,
大田 (Ota),2017-04-06,14:01～15:00,0.0370,0.0336,0.0357,
大田 (Ota),2017-04-06,13:01～14:00,0.0376,0.0334,0.0356,
大田 (Ota),2017-04-06,12:01～13:00,0.0389,0.0339,0.0359,
大田 (Ota),2017-04-06,11:01～12:00,0.0375,0.0331,0.0357,
大田 (Ota),2017-04-06,10:01～11:00,0.0393,0.0335,0.0359,
大田 (Ota),2017-04-06,09:01～10:00,0.0379,0.0339,0.0357,
大田 (Ota),2017-04-06,08:01～09:00,0.0384,0.0341,0.0358,
大田 (Ota),2017-04-06,07:01～08:00,0.0392,0.0335,0.0357,
大田 (Ota),2017-04-06,06:01～07:00,0.0377,0.0338,0.0358,
大田 (Ota),2017-04-06,05:01～06:00,0.0378,0.0342,0.0359,
大田 (Ota),2017-04-06,04:01～05:00,0.0386,0.0340,0.0359,
大田 (Ota),2017-04-06,03:01～04:00,0.0382,0.0340,0.0360,
大田 (Ota),2017-04-06,02:01～03:00,0.0375,0.0338,0.0360,
大田 (Ota),2017-04-06,01:01～02:00,0.0377,0.0340,0.0361,
大田 (Ota),2017-04-06,00:01～01:00,0.0385,0.0345,0.0361,
大田 (Ota),2017-04-05,23:01～24:00,0.0396,0.0339,0.0358,
大田 (Ota),2017-04-05,22:01～23:00,0.0381,0.0337,0.0361,
大田 (Ota),2017-04-05,21:01～22:00,0.0411,0.0340,0.0361,
大田 (Ota),2017-04-05,20:01～21:00,0.0376,0.0341,0.0359,
大田 (Ota),2017-04-05,19:01～20:00,0.0380,0.0335,0.0359,
大田 (Ota),2017-04-05,18:01～19:00,0.0374,0.0339,0.0361,
大田 (Ota),2017-04-05,17:01～18:00,0.0372,0.0341,0.0359,
大田 (Ota),2017-04-05,16:01～17:00,0.0377,0.0342,0.0361,
大田 (Ota),2017-04-05,15:01～16:00,0.0372,0.0339,0.0357,
大田 (Ota),2017-04-05,14:01～15:00,0.0384,0.0338,0.0360,
大田 (Ota),2017-04-05,13:01～14:00,0.0372,0.0340,0.0358,
大田 (Ota),2017-04-05,12:01～13:00,0.0392,0.0339,0.0362,
大田 (Ota),2017-04-05,11:01～12:00,0.0383,0.0339,0.0359,
大田 (Ota),2017-04-05,10:01～11:00,0.0386,0.0348,0.0363,
大田 (Ota),2017-04-05,09:01～10:00,0.0406,0.0340,0.0362,
大田 (Ota),2017-04-05,08:01～09:00,0.0400,0.0344,0.0365,
大田 (Ota),2017-04-05,07:01～08:00,0.0390,0.0343,0.0362,
大田 (Ota),2017-04-05,06:01～07:00,0.0395,0.0339,0.0360,
大田 (Ota),2017-04-05,05:01～06:00,0.0398,0.0337,0.0362,
大田 (Ota),2017-04-05,04:01～05:00,0.0392,0.0344,0.0361,
大田 (Ota),2017-04-05,03:01～04:00,0.0381,0.0346,0.0361,
大田 (Ota),2017-04-05,02:01～03:00,0.0388,0.0338,0.0359,
大田 (Ota),2017-04-05,01:01～02:00,0.0378,0.0335,0.0359,
大田 (Ota),2017-04-05,00:01～01:00,0.0374,0.0342,0.0360,
大田 (Ota),2017-04-04,23:01～24:00,0.0371,0.0335,0.0358,
大田 (Ota),2017-04-04,22:01～23:00,0.0382,0.0343,0.0359,
大田 (Ota),2017-04-04,21:01～22:00,0.0393,0.0344,0.0358,
大田 (Ota),2017-04-04,20:01～21:00,0.0387,0.0338,0.0360,
大田 (Ota),2017-04-04,19:01～20:00,0.0384,0.0332,0.0360,
大田 (Ota),2017-04-04,18:01～19:00,0.0384,0.0336,0.0359,
大田 (Ota),2017-04-04,17:01～18:00,0.0378,0.0338,0.0357,
大田 (Ota),2017-04-04,16:01～17:00,0.0380,0.0335,0.0358,
大田 (Ota),2017-04-04,15:01～16:00,0.0401,0.0341,0.0359,
大田 (Ota),2017-04-04,14:01～15:00,0.0383,0.0345,0.0362,
大田 (Ota),2017-04-04,13:01～14:00,0.0383,0.0340,0.0363,
大田 (Ota),2017-04-04,12:01～13:00,0.0378,0.0346,0.0364,
大田 (Ota),2017-04-04,11:01～12:00,0.0393,0.0342,0.0362,
大田 (Ota),2017-04-04,10:01～11:00,0.0382,0.0341,0.0363,
大田 (Ota),2017-04-04,09:01～10:00,0.0390,0.0344,0.0363,
大田 (Ota),2017-04-04,08:01～09:00,0.0382,0.0345,0.0362,
大田 (Ota),2017-04-04,07:01～08:00,0.0385,0.0340,0.0363,
大田 (Ota),2017-04-04,06:01～07:00,0.0383,0.0338,0.0357,
大田 (Ota),2017-04-04,05:01～06:00,0.0374,0.0336,0.0357,
大田 (Ota),2017-04-04,04:01～05:00,0.0380,0.0342,0.0356,
大田 (Ota),2017-04-04,03:01～04:00,0.0371,0.0336,0.0354,
大田 (Ota),2017-04-04,02:01～03:00,0.0371,0.0333,0.0353,
大田 (Ota),2017-04-04,01:01～02:00,0.0372,0.0333,0.0354,
大田 (Ota),2017-04-04,00:01～01:00,0.0368,0.0331,0.0353,
大田 (Ota),2017-04-03,23:01～24:00,0.0393,0.0334,0.0356,
大田 (Ota),2017-04-03,22:01～23:00,0.0377,0.0335,0.0355,
大田 (Ota),2017-04-03,21:01～22:00,0.0379,0.0344,0.0359,
大田 (Ota),2017-04-03,20:01～21:00,0.0419,0.0345,0.0376,
大田 (Ota),2017-04-03,19:01～20:00,0.0489,0.0362,0.0426,
大田 (Ota),2017-04-03,18:01～19:00,0.0495,0.0345,0.0420,
大田 (Ota),2017-04-03,17:01～18:00,0.0384,0.0339,0.0358,
大田 (Ota),2017-04-03,16:01～17:00,0.0381,0.0333,0.0359,
大田 (Ota),2017-04-03,15:01～16:00,0.0378,0.0335,0.0357,
大田 (Ota),2017-04-03,14:01～15:00,0.0376,0.0334,0.0357,
大田 (Ota),2017-04-03,13:01～14:00,0.0378,0.0342,0.0358,
大田 (Ota),2017-04-03,12:01～13:00,0.0381,0.0336,0.0358,
大田 (Ota),2017-04-03,11:01～12:00,0.0379,0.0342,0.0361,
大田 (Ota),2017-04-03,10:01～11:00,0.0374,0.0339,0.0359,
大田 (Ota),2017-04-03,09:01～10:00,0.0380,0.0337,0.0360,
大田 (Ota),2017-04-03,08:01～09:00,0.0377,0.0341,0.0357,
大田 (Ota),2017-04-03,07:01～08:00,0.0375,0.0341,0.0356,
大田 (Ota),2017-04-03,06:01～07:00,0.0372,0.0333,0.0353,
大田 (Ota),2017-04-03,05:01～06:00,0.0371,0.0334,0.0356,
大田 (Ota),2017-04-03,04:01～05:00,0.0376,0.0340,0.0356,
大田 (Ota),2017-04-03,03:01～04:00,0.0376,0.0334,0.0356,
大田 (Ota),2017-04-03,02:01～03:00,0.0373,0.0327,0.0354,
大田 (Ota),2017-04-03,01:01～02:00,0.0372,0.0331,0.0352,
大田 (Ota),2017-04-03,00:01～01:00,0.0377,0.0326,0.0351,
